Flag for Canada Weather past 2 weeks in Saint John, New Brunswick, Canada

Now
59 °F

Fog.


Feels Like: 60 °F
Forecast: 57 / 70 °F
Wind: 3 mph from South

Location: Saint John

Current Time: Aug 2, 2014 at 6:26:32 AM

Latest Report: Aug 2, 2014 at 5:00 AM


Visibility: 0 mi

Pressure: 30.24 "Hg

Humidity: 100%

Dew point: 59 °F

Location of Saint JohnLocation

Historic Weather in Saint John — Graph

°F

Saint John temperature yesterday

Maximum temperature yesterday: 75 °F (at 2:00 PM)
Minimum temperature yesterday: 57 °F (at 1:00 AM)
Average temperature yesterday: 64 °F

Past Weeks' High & Low Weather Summary

 TemperatureHumidityPressure
High81 °F (Jul 19, 3:00 PM)100% (Jul 18, 5:00 AM)30.27 "Hg (Jul 18, 5:00 AM)
Low48 °F (Jul 26, 5:00 AM)39% (Jul 19, 2:00 PM)29.59 "Hg (Jul 29, 3:00 AM)
Average63 °F87%30.00 "Hg
* Reported Jul 18 5:00 AM — Aug 2 5:00 AM, Saint John, Weather by CustomWeather, © 2014

Note: Actual official high and low records may vary slightly from our data, if they occured in-between our weather recording intervals... More about our weather records

Advertising

Saint John weather history for previous 24 hours

 ConditionsComfort  
Time TempWeatherWind HumidityBarometerVisibility
5:00 AM
Aug 2
59 °FFog.3 mph100%30.24 "Hg0 mi
4:00 AM59 °FFog.3 mph100%30.25 "Hg0 mi
3:00 AM59 °FFog.6 mph100%30.27 "Hg0 mi
2:00 AM59 °FFog.8 mph100%30.27 "Hg0 mi
1:00 AM61 °FFog.6 mph100%30.27 "Hg0 mi
12:00 AM61 °FFog.6 mph100%30.27 "Hg1 mi
11:00 PM
Aug 1
63 °FFog.5 mph100%30.27 "Hg1 mi
10:00 PM61 °FFog.6 mph100%30.27 "Hg0 mi
9:00 PM61 °FFog.6 mph100%30.26 "Hg1 mi
8:00 PM64 °FPartly sunny.9 mph88%30.25 "Hg15 mi
7:00 PM70 °FPartly sunny.9 mph78%30.25 "Hg15 mi
6:00 PM72 °FPartly sunny.13 mph73%30.25 "Hg15 mi
5:00 PM72 °FPartly sunny.15 mph69%30.25 "Hg15 mi
4:00 PM73 °FPartly sunny.14 mph69%30.25 "Hg15 mi
3:00 PM73 °FPartly sunny.12 mph69%30.26 "Hg15 mi
2:00 PM75 °FPartly sunny.14 mph65%30.26 "Hg12 mi
1:00 PM72 °FPartly sunny.7 mph73%30.27 "Hg12 mi
12:00 PM66 °FLow clouds.6 mph88%30.27 "Hg8 mi
11:00 AM64 °FFog.5 mph100%30.27 "Hg2 mi
10:00 AM61 °FFog.6 mph100%30.27 "Hg1 mi
9:00 AM61 °FFog.6 mph100%30.27 "Hg1 mi
8:00 AM57 °FFog.5 mph100%30.25 "Hg1 mi
7:00 AM57 °FFog.5 mph100%30.24 "Hg0 mi
6:00 AM57 °FFog.7 mph100%30.23 "Hg0 mi
Weather by CustomWeather, © 2014

See weather overviewHow to use our weather pages